{"data":{"norad_id":48994,"epoch":"2026-09-20T04:23:21.238944Z","epoch_age_seconds":49293,"freshness":"FRESH","line1":"1 48994U 21060AD  26263.18288471 -.00000074  00000+0 -22795-3 0  9991","line2":"2 48994  87.9158 209.9154 0002146  76.7428 283.3942 13.16593252252075","mean_motion":13.16593252,"eccentricity":0.0002146,"inclination_deg":87.9158,"raan_deg":209.9154,"arg_perigee_deg":76.7428,"mean_anomaly_deg":283.3942,"bstar":-0.00022795,"rev_number":25207,"period_min":109.37318703499,"perigee_km":1196.134734775,"apogee_km":1199.3863099917,"semimajor_km":7575.8975223834,"source":"CELESTRAK","updated_at":"2026-09-20T09:00:44.628470Z"}}